Regional Weather Roundup
Issued by NWS

Home | Current Version | Previous Version | Text Only | Print | Product List | Glossary On
Versions: 1 2 3 4 5 6 7 8 9 10 11 12 13 14 15 16 17 18 19 20 21 22 23 24 25 26 27 28 29 30 31 32 33 34 35 36 37 38 39 40 41 42 43 44 45 46 47 48 49 50
000
ASUS43 KTOP 232059
RWRKS

WEATHER ROUNDUP FOR KANSAS
NATIONAL WEATHER SERVICE GOODLAND KS
300 PM CST MON JAN 23 2017

NOTE:  "FAIR" INDICATES FEW OR NO CLOUDS BELOW 12,000 FEET WITH NO
SIGNIFICANT WEATHER AND/OR OBSTRUCTIONS TO VISIBILITY.

KSZ001>006-013>018-027>032-041>047-232200-
NORTHWEST KANSAS

CITY           SKY/WX    TMP DP  RH WIND       PRES   REMARKS
GOODLAND       SUNNY     56  27  32 NW6       29.55F
HAYS           SUNNY     56  33  42 S21G28    29.62F
HILL CITY      SUNNY     56  32  40 S16G23    29.60F
RUSSELL        SUNNY     54  32  43 S20G30    29.64F
$$

KSZ061>065-074>080-084>089-232200-
SOUTHWEST KANSAS

CITY           SKY/WX    TMP DP  RH WIND       PRES   REMARKS
DODGE CITY     SUNNY     59  31  34 S15       29.63F
ELKHART          N/A     66  27  23 W21         N/A
GARDEN CITY    SUNNY     57  33  40 S10       29.60F
GREAT BEND     SUNNY     54  34  46 S24       29.65F
LIBERAL          N/A     68  36  30 W12       29.62F
$$

KSZ066>073-081>083-090>101-232200-
SOUTHEAST KANSAS

CITY           SKY/WX    TMP DP  RH WIND       PRES   REMARKS
CHANUTE        SUNNY     52  34  50 SE8       29.80F
COFFEYVILLE    SUNNY     53  35  50 S9        29.82F
HUTCHINSON     SUNNY     54  31  41 S18       29.72F
MEDICINE LODGE   N/A     56  32  40 S20G26    29.68F
NEWTON         SUNNY     52  36  54 S15       29.74F
PARSONS        SUNNY     52  35  52 SE7       29.82F
WICHITA INTL   SUNNY     54  33  45 S17       29.73F
WICHITA JABRA  SUNNY     53  33  46 SE15      29.74F
WINFIELD       SUNNY     56  32  40 S14       29.76F
$$

KSZ007>012-019>026-033>040-048>060-102>105-232200-
NORTHEAST KANSAS

CITY           SKY/WX    TMP DP  RH WIND       PRES   REMARKS
CONCORDIA      SUNNY     53  32  44 S16       29.71F
EMPORIA        SUNNY     54  31  41 SE12      29.76F
LAWRENCE       MOSUNNY   41  34  76 E6        29.83F HAZE
MANHATTAN      SUNNY     51  36  56 E9        29.75F
OLATHE IND     SUNNY     40  34  79 E5        29.83F
OLATHE EXE     SUNNY     41  33  73 E3        29.82F
SALINA         SUNNY     55  30  38 S20G26    29.72F
TOPEKA BILLARD PTSUNNY   40  34  79 E10       29.81F HAZE    WCI  33
TOPEKA FORBES  SUNNY     45  36  70 E10       29.79F
$$




USA.gov is the U.S. government's official web portal to all federal, state and local government web resources and services.